Location: *
(44.3683°N, 6.6958°E)
Time: 13:30:16
(UTC+00:00)

Okean-O - Pass Details

Date: 14 October 2019
Orbit: 639 x 641 km, 98.2° (Epoch: 12 November)

Event Time Altitude Azimuth Distance (km) Brightness Sun altitude
Rises 17:25:49 0° 173° (S) 2,932 6.0 -6.9°
Reaches altitude 10° 17:28:02 10° 176° (S) 2,027 5.2 -7.3°
Maximum altitude 17:32:25 64° 258° (WSW) 712 3.2 -8.1°
Drops below altitude 10° 17:36:50 10° 341° (NNW) 2,043 5.4 -8.9°
Sets 17:39:05 0° 344° (NNW) 2,957 6.2 -9.3°
